Back to catalog

YAOGAN-30 S

AliveMilitaryVLEO
NORAD 45461·PAYLOAD·🇨🇳 China

Launched Mar 24, 2020 from Xichang Satellite Launch Center

Loading…

Next Passes (next 24 hours)

TLE

FreshSource: Space-Track

Epoch: Sep 14, 2026, 15:02 UTC

1 45461U 20021B   26257.62682889  .00002144  00000-0  15813-3 0  9998
2 45461  34.9953  25.1954 0003087 283.4602  76.5763 15.03037750353954

Track YAOGAN-30 S in real time with AllMySat

Download on the App Store